Weather History for KAPC - October, 2013

Change the Weather History Date:

Friday, October 25, 2013

  Actual Average Record
Temperature  
Mean Temperature 54 °F 57 °F  
Max Temperature 70 °F 72 °F 94 °F (2003)
Min Temperature 37 °F 42 °F 36 °F (2006)
Degree Days  
Heating Degree Days 11    
Month to date heating degree days 172  
Since 1 July heating degree days 236  
Cooling Degree Days 0    
Month to date cooling degree days 4  
Year to date cooling degree days 303  
Growing Degree Days 3 (Base 50)    
Moisture  
Dew Point 42 °F    
Average Humidity 74    
Maximum Humidity 100    
Minimum Humidity 47    
Precipitation  
Precipitation 0.00 in - 2.01 in (1979)
Month to date precipitation 0.00  
Year to date precipitation 2.81  
Since 1 July precipitation 0.84  
Sea Level Pressure  
Sea Level Pressure 30.12 in    
Wind  
Wind Speed 4 mph (NE)    
Max Wind Speed 33 mph    
Max Gust Speed 99 mph    
Visibility 5 miles    
Events Fog    
T = Trace of Precipitation, MM = Missing Value Source: NWS Daily Summary

Daily Weather History Graph

Daily Weather History Graph

Search for Another Location

Airport or City:

Trip Planner

Search our weather history database for the weather conditions in past years. The results will help you decide how hot, cold, wet, or windy it might be!

Date:

Astronomy

Oct. 25, 2013 Rise Set
Actual Time 7:28 AM PDT 6:17 PM PDT
Civil Twilight 7:01 AM PDT 6:44 PM PDT
Nautical Twilight 6:30 AM PDT 7:15 PM PDT
Astronomical Twilight 5:59 AM PDT 7:45 PM PDT
Moon 11:43 PM PDT 1:10 PM PDT
Length of Visible Light 11h 43m
Length of Day
10h 49m
Waning Gibbous, 61% of the Moon is Illuminated
Oct 25
Waning Gibbous
Oct 26
Last Quarter
Nov 3
New
Nov 9
First Quarter
Nov 17
Full

Hourly Weather History & Observations

Time (PDT) Temp. Windchill Dew Point Humidity Pressure Visibility Wind Dir Wind Speed Gust Speed Precip Events Conditions
12:54 AM 48.9 °F - 46.0 °F 90% 30.09 in 10.0 mi WSW 6.9 mph - N/A   Clear
1:54 AM 46.9 °F - 46.0 °F 97% 30.09 in 10.0 mi WSW 3.5 mph - N/A   Clear
2:54 AM 46.0 °F - 44.1 °F 93% 30.11 in 9.0 mi Calm Calm - N/A   Clear
3:31 AM 41.0 °F 35.2 °F 39.2 °F 93% 30.13 in 1.8 mi SSW 9.2 mph - N/A   Clear
3:41 AM 39.2 °F 33.6 °F 39.2 °F 100% 30.13 in 3.0 mi ESE 8.1 mph - N/A   Clear
3:54 AM 41.0 °F 38.0 °F 39.0 °F 93% 30.10 in 3.0 mi Variable 4.6 mph - N/A   Clear
4:32 AM 41.0 °F 39.0 °F 39.2 °F 93% 30.13 in 2.5 mi North 3.5 mph - N/A   Partly Cloudy
4:40 AM 39.2 °F 35.9 °F 39.2 °F 100% 30.13 in 1.0 mi North 4.6 mph - N/A   Mist
4:46 AM 39.2 °F 35.9 °F 39.2 °F 100% 30.13 in 0.5 mi North 4.6 mph - N/A Fog Fog
4:51 AM 39.2 °F 37.0 °F 39.2 °F 100% 30.13 in 1.0 mi North 3.5 mph - N/A   Mist
4:54 AM 41.0 °F 39.0 °F 39.0 °F 93% 30.11 in 3.0 mi North 3.5 mph - N/A   Partly Cloudy
5:17 AM 41.0 °F 33.9 °F 39.2 °F 93% 30.14 in 1.2 mi West 12.7 mph - N/A   Partly Cloudy
5:19 AM 41.0 °F 33.9 °F 39.2 °F 93% 30.14 in 0.5 mi West 12.7 mph - N/A Fog Fog
5:32 AM 41.0 °F 33.5 °F 39.2 °F 93% 30.14 in 1.0 mi West 13.8 mph - N/A   Mist
5:35 AM 39.2 °F 31.2 °F 39.2 °F 100% 30.14 in 2.0 mi West 13.8 mph - N/A   Partly Cloudy
5:54 AM 39.9 °F 37.8 °F 37.9 °F 93% 30.12 in 0.8 mi Variable 3.5 mph 20.7 mph N/A   Clear
6:02 AM 37.4 °F - 37.4 °F 100% 30.14 in 1.0 mi North - - N/A   Mist
6:07 AM 37.4 °F 33.8 °F 37.4 °F 100% 30.14 in 0.5 mi Variable 4.6 mph 99.0 mph N/A Fog Fog
6:40 AM 41.0 °F 30.7 °F 39.2 °F 93% 30.15 in 1.0 mi NNE 25.3 mph 35.7 mph N/A   Mist
6:42 AM 41.0 °F 30.9 °F 39.2 °F 93% 30.15 in 2.0 mi NNE 24.2 mph 35.7 mph N/A   Partly Cloudy
6:50 AM 39.2 °F - 39.2 °F 100% 30.15 in 5.0 mi Calm Calm - N/A   Partly Cloudy
6:54 AM 39.9 °F - 39.9 °F 100% 30.12 in 2.5 mi Calm Calm - N/A   Clear
6:57 AM 37.4 °F - 37.4 °F 100% 30.15 in 0.8 mi Calm Calm - N/A   Mist
7:04 AM 39.2 °F - 39.2 °F 100% 30.15 in 0.2 mi Calm Calm - N/A Fog Fog
7:12 AM 41.0 °F 39.0 °F 39.2 °F 93% 30.15 in 1.0 mi NE 3.5 mph - N/A   Mist
7:16 AM 42.8 °F 41.1 °F 41.0 °F 93% 30.15 in 2.5 mi ENE 3.5 mph - N/A   Partly Cloudy
7:23 AM 39.2 °F 37.0 °F 37.4 °F 93% 30.15 in 3.0 mi ENE 3.5 mph - N/A   Partly Cloudy
7:29 AM 39.2 °F 37.0 °F 39.2 °F 100% 30.15 in 1.8 mi ENE 3.5 mph - N/A   Clear
7:34 AM 39.2 °F 37.0 °F 39.2 °F 100% 30.15 in 0.5 mi ENE 3.5 mph - N/A Fog Fog
7:41 AM 39.2 °F - 39.2 °F 100% 30.16 in 0.2 mi Calm Calm - N/A Fog Fog
7:49 AM 39.2 °F - 39.2 °F 100% 30.16 in 1.0 mi Calm Calm - N/A   Mist
7:54 AM 37.9 °F - 37.9 °F 100% 30.14 in 2.0 mi Calm Calm - N/A   Partly Cloudy
8:11 AM 39.2 °F - 39.2 °F 100% 30.17 in 1.2 mi Calm Calm - N/A   Clear
8:17 AM 41.0 °F - 41.0 °F 100% 30.17 in 3.0 mi Calm Calm - N/A   Clear
8:54 AM 46.9 °F - 45.0 °F 93% 30.15 in 7.0 mi North 3.5 mph 20.7 mph N/A   Clear
9:54 AM 52.0 °F - 46.9 °F 83% 30.16 in 10.0 mi Variable 5.8 mph - N/A   Clear
10:54 AM 57.9 °F - 48.0 °F 70% 30.15 in 10.0 mi Variable 5.8 mph 21.9 mph N/A   Clear
11:54 AM 59.0 °F - 48.9 °F 69% 30.15 in 10.0 mi Variable 4.6 mph - N/A   Clear
12:54 PM 63.0 °F - 48.9 °F 60% 30.13 in 10.0 mi SSW 3.5 mph - N/A   Clear
1:54 PM 66.9 °F - 46.0 °F 47% 30.10 in 10.0 mi SW 4.6 mph - N/A   Clear
2:54 PM 69.1 °F - 48.0 °F 47% 30.08 in 10.0 mi Variable 4.6 mph - N/A   Clear
3:54 PM 68.0 °F - 48.0 °F 49% 30.07 in 10.0 mi SSW 6.9 mph 25.3 mph N/A   Clear
4:54 PM 66.0 °F - 48.0 °F 52% 30.06 in 10.0 mi South 4.6 mph - N/A   Clear
5:54 PM 66.0 °F - 48.9 °F 54% 30.06 in 10.0 mi West 3.5 mph - N/A   Clear
6:54 PM 57.0 °F - 46.0 °F 67% 30.06 in 10.0 mi SE 6.9 mph - N/A   Clear
7:54 PM 54.0 °F - 46.0 °F 75% 30.06 in 10.0 mi SSE 3.5 mph - N/A   Clear
8:54 PM 55.0 °F - 46.9 °F 74% 30.07 in 10.0 mi SSE 4.6 mph - N/A   Clear
9:54 PM 52.0 °F - 45.0 °F 77% 30.08 in 10.0 mi SSE 3.5 mph - N/A   Clear
10:54 PM 48.9 °F - 43.0 °F 80% 30.09 in 10.0 mi SE 4.6 mph - N/A   Clear
11:54 PM 48.0 °F - 43.0 °F 83% 30.09 in 10.0 mi Calm Calm - N/A   Clear